CDT,Max TemperatureF,Mean TemperatureF,Min TemperatureF,Max Dew PointF,MeanDew PointF,Min DewpointF,Max Humidity, Mean Humidity, Min Humidity, Max Sea Level PressureIn, Mean Sea Level PressureIn, Min Sea Level PressureIn, Max VisibilityMiles, Mean VisibilityMiles, Min VisibilityMiles, Max Wind SpeedMPH, Mean Wind SpeedMPH, Max Gust SpeedMPH,PrecipitationIn, CloudCover, Events, WindDirDegrees
2012-10-1,64,55,46,48,42,37,93,59,42,29.95,29.89,29.83,10,10,5,6,3,,0.00,0,,96
2012-10-2,71,58,46,45,42,37,81,54,33,29.93,29.88,29.83,10,10,10,9,4,16,0.00,0,,37
2012-10-3,73,60,46,55,48,41,100,73,31,30.00,29.95,29.93,10,8,0,12,6,,0.00,3,Fog,58
2012-10-4,64,54,44,54,44,30,100,71,39,30.13,30.02,29.94,10,10,10,24,13,30,0.00,2,Thunderstorm,233
2012-10-5,46,40,35,30,26,19,81,55,37,30.15,30.10,30.06,10,10,10,23,14,29,0.00,1,,264
2012-10-6,42,38,33,27,25,23,75,59,46,30.19,30.13,30.06,10,10,10,14,10,21,0.00,7,,292
2012-10-7,50,42,33,27,21,12,70,47,24,30.19,30.14,30.08,10,10,10,16,7,22,0.00,4,,268
2012-10-8,60,46,32,30,26,19,75,48,29,30.08,29.99,29.89,10,10,10,28,15,38,0.00,1,,197
2012-10-9,60,50,41,43,36,30,100,65,39,29.91,29.85,29.78,10,10,5,23,17,30,0.07,4,Rain,230
2012-10-10,50,41,32,37,28,23,93,65,35,30.13,30.06,29.91,10,10,10,21,12,28,0.00,1,,261
2012-10-11,62,50,37,39,31,21,76,54,32,30.28,30.08,30.01,10,10,10,26,16,36,0.00,3,Rain,256
2012-10-12,53,42,32,32,23,18,75,50,26,30.45,30.35,30.22,10,10,10,13,9,18,0.00,0,,80
2012-10-13,62,52,41,63,52,30,100,96,57,30.21,29.90,29.73,10,5,0,22,14,29,0.48,8,Fog-Rain-Thunderstorm,182
2012-10-14,62,53,44,63,54,43,100,98,87,29.80,29.61,29.46,10,7,0,20,11,31,0.74,8,Rain,270
2012-10-15,59,49,39,43,37,34,100,67,39,29.95,29.90,29.80,10,10,10,14,9,17,0.00,0,,279
2012-10-16,69,56,42,50,44,36,93,65,43,29.92,29.67,29.46,10,10,10,28,13,36,0.00,1,Rain,167
2012-10-17,64,58,50,57,50,45,100,79,55,29.48,29.40,29.30,10,9,3,23,14,33,0.57,4,Rain,202
2012-10-18,50,46,42,46,43,39,100,94,81,29.40,29.33,29.28,10,10,4,22,14,32,0.04,7,Rain,213
2012-10-19,48,44,41,45,43,39,100,96,82,29.66,29.51,29.37,10,8,2,12,5,17,0.08,7,Rain,303
2012-10-20,57,47,37,41,37,36,100,74,44,29.91,29.79,29.66,10,10,10,13,9,21,0.00,1,,270
2012-10-21,68,52,37,50,44,37,100,75,43,29.99,29.94,29.91,10,10,4,17,8,21,0.00,0,,149
2012-10-22,59,55,51,59,56,52,100,98,88,29.94,29.91,29.86,10,4,0,12,6,,0.71,7,Fog-Rain-Thunderstorm,103
2012-10-23,71,63,55,68,61,55,100,95,64,29.91,29.87,29.82,10,5,0,15,7,21,0.02,8,Fog-Rain-Thunderstorm,133
2012-10-24,77,68,60,66,63,61,100,85,61,29.90,29.84,29.76,10,9,5,22,12,29,0.00,5,,175
2012-10-25,69,54,39,64,53,32,100,87,73,30.10,29.77,29.60,10,9,2,28,19,37,0.28,7,Rain-Thunderstorm,225
2012-10-26,46,39,32,30,27,23,87,64,43,30.33,30.26,30.10,10,10,10,15,10,23,0.00,2,,305
2012-10-27,42,36,30,27,23,19,80,61,42,30.35,30.30,30.27,10,10,10,13,7,18,0.00,1,,348
2012-10-28,46,38,30,28,24,19,75,61,46,30.33,30.30,30.27,10,10,10,13,6,16,0.00,1,,14
2012-10-29,50,41,32,30,24,16,80,58,26,30.34,30.27,30.13,10,10,10,15,7,21,0.00,0,,1
2012-10-30,46,40,33,27,23,19,75,55,34,30.13,29.95,29.86,10,10,10,22,13,34,0.00,0,,342
2012-10-31,48,39,30,28,20,10,75,54,22,29.88,29.86,29.83,10,10,10,18,10,24,0.00,0,,315